Location: Christchurch
(43.5330°S, 172.6330°E)
Time: 09:20:47
(UTC+13:00)

Atlas Centaur 2 - Pass Details

Date: 24 January 2019
Orbit: 459 x 1311 km, 30.4° (Epoch: 16 February)

Event Time Altitude Azimuth Distance (km) Brightness Sun altitude
Rises 22:21:20 0° 298° (WNW) 4,197 6.1 -12.3°
Reaches altitude 10° 22:24:33 10° 307° (NW) 3,290 5.4 -12.7°
Maximum altitude 22:31:47 32° 5° (N) 2,093 3.8 -13.7°
Enters shadow 22:36:40 18° 53° (NE) 2,694 4.2 -14.3°
